RH
23 23 23 23 23 23 23 23 23 23 23 23 23 22 23 25 23 22 22 22 22 22 21 21 21 20 21 20 20 38 69 92 102 102 100 101 102 98 91 91 85 68 57 51 46 41 31 20 15 14 21 47 65 64 67 74 89 106 106 103 103 99
23 24 24 23 24 23 23 24 23 24 23 23 23 22 22 22 22 22 22 22 22 21 21 21 20 21 21 23 39 72 98 101 100 100 101 102 99 91 90 90 79 67 61 54 47 36 23 17 12 10 18 49 75 76 75 74 83 104 109 106 107 102
24 24 24 24 24 23 24 24 23 23 23 23 22 22 21 21 22 22 22 22 22 21 21 21 21 21 21 38 75 97 102 100 100 102 102 102 96 92 94 89 77 69 62 53 46 31 19 16 12 9 12 41 83 92 82 78 83 98 107 107 106 104
24 24 24 24 24 23 24 23 23 23 22 22 21 21 21 21 22 21 22 21 21 22 22 22 22 23 29 62 98 102 99 101 100 102 103 104 100 90 86 87 83 68 56 51 41 28 20 14 11 10 8 26 71 100 96 88 87 94 103 107 106 105
24 24 24 24 24 23 23 23 23 22 22 22 21 21 21 21 21 20 21 20 21 22 22 23 24 28 50 85 103 100 100 100 100 101 104 104 95 86 88 95 85 61 53 50 36 26 18 10 10 10 8 13 39 81 103 101 94 96 103 102 102 104
24 24 24 24 24 23 23 22 22 22 22 21 21 21 21 20 20 20 20 20 21 21 22 24 24 33 68 99 101 101 101 99 101 99 101 101 89 88 99 100 79 57 53 48 35 25 14 7 10 10 11 11 15 40 75 98 102 101 103 97 94 100
24 24 24 23 23 23 22 22 21 22 22 22 22 21 21 20 20 20 20 20 20 21 22 24 25 33 72 104 99 100 102 98 102 99 101 101 92 90 91 86 70 59 55 45 35 21 11 9 9 10 11 13 15 19 33 69 101 103 100 96 91 94
23 23 23 23 22 22 22 22 22 22 22 23 23 22 21 21 21 20 20 20 20 21 22 24 27 28 60 101 100 98 102 99 100 101 101 97 95 95 85 74 67 70 66 56 50 27 10 9 8 11 13 12 18 21 17 42 91 105 98 96 89 86
22 22 22 22 21 22 22 22 23 23 23 24 24 23 23 23 22 21 20 20 20 22 23 24 28 25 43 86 102 98 100 100 100 101 101 99 103 102 91 86 87 94 87 85 85 51 22 16 10 9 12 14 15 20 20 34 82 103 100 99 92 84
23 22 21 22 23 23 24 24 25 25 25 26 25 25 25 26 24 22 21 21 23 23 26 26 28 29 31 59 92 102 101 100 99 102 101 97 103 103 99 102 102 102 99 105 106 72 45 33 20 13 10 13 14 16 18 35 82 104 102 104 99 87
24 24 24 25 26 27 27 28 28 28 29 28 29 29 28 29 26 24 23 24 27 26 29 30 30 33 31 40 62 82 97 100 100 102 100 95 99 101 101 104 100 100 102 105 106 86 63 48 34 23 13 12 13 15 13 28 81 108 101 104 104 91
27 28 28 29 31 32 32 31 31 31 32 33 32 31 30 32 30 30 30 30 32 32 32 34 34 35 39 43 45 68 95 100 102 104 103 101 99 99 98 101 101 104 102 95 100 96 75 57 43 30 19 15 12 16 13 15 62 105 102 99 104 96
31 33 34 36 36 36 35 34 35 35 36 38 37 37 37 40 41 41 40 38 37 38 37 37 39 39 46 53 54 81 104 99 101 103 101 101 98 99 98 103 108 106 99 86 88 95 85 65 42 29 22 18 14 16 18 9 36 90 106 99 101 103
36 38 40 43 44 41 39 37 39 42 44 45 46 48 50 51 53 51 46 44 42 42 42 40 44 45 53 59 58 81 103 100 100 101 99 93 91 101 100 104 112 104 96 86 84 91 88 70 44 29 21 17 17 16 21 13 18 65 101 102 99 104
42 44 46 49 50 49 46 43 44 51 55 57 58 60 62 60 59 56 50 49 47 45 45 44 47 52 54 56 55 76 101 102 99 101 100 88 85 99 102 105 111 102 95 89 88 92 90 77 52 36 24 16 16 17 25 23 13 37 81 103 101 99
46 48 52 55 57 60 60 58 58 62 67 68 68 67 65 62 58 57 53 52 50 45 46 46 48 52 52 60 75 92 104 102 99 101 101 94 91 101 106 106 100 92 90 78 75 90 96 83 62 52 37 18 14 16 22 28 22 21 54 97 105 95
51 54 59 63 69 76 79 80 77 76 76 74 71 67 63 60 56 54 52 51 49 45 46 45 47 49 51 74 99 102 102 102 101 100 99 100 99 103 108 104 89 81 80 65 58 80 96 90 84 82 60 26 13 16 18 23 27 21 33 76 104 99
58 65 73 79 85 92 94 92 89 84 80 75 69 64 60 57 53 51 49 48 47 45 44 43 46 46 50 81 103 99 100 101 100 100 99 101 100 101 105 101 94 91 83 63 57 78 95 99 102 103 87 53 23 14 15 17 23 24 24 47 86 104
71 81 91 96 98 100 98 93 89 83 78 72 66 62 57 54 50 48 46 45 45 44 43 41 43 43 52 84 103 98 100 100 99 101 99 101 100 99 101 100 100 98 82 65 69 91 103 106 107 105 101 88 63 37 20 13 16 23 22 24 51 88
88 97 102 102 102 100 95 90 86 79 73 67 62 58 54 51 47 45 44 44 44 42 42 40 40 40 48 80 102 99 99 101 99 100 100 101 100 99 100 100 101 97 78 64 75 93 104 110 110 105 101 99 99 83 49 21 12 15 22 20 22 49
102 105 106 101 100 97 91 88 82 74 68 63 59 55 52 49 45 43 43 43 43 42 41 40 39 38 40 65 97 102 99 100 100 99 101 101 99 100 101 99 101 100 85 76 78 78 85 104 109 105 103 99 101 104 86 59 33 15 15 21 19 23
106 106 106 102 98 93 89 87 78 69 65 60 56 53 50 49 45 43 42 42 43 42 41 39 38 38 35 46 80 102 100 99 100 100 100 101 100 100 100 98 98 101 97 94 94 76 64 87 106 104 104 103 99 101 101 94 76 44 18 18 22 22
103 105 106 100 94 92 91 86 74 67 64 59 56 53 49 48 46 43 41 42 43 42 42 40 37 37 35 37 65 97 103 100 101 100 99 100 101 100 99 99 98 101 100 97 103 91 62 64 86 91 96 107 104 99 101 103 100 80 42 21 22 25
96 98 103 99 92 91 90 83 72 65 61 58 57 54 50 48 46 44 42 41 43 43 41 41 38 36 36 35 53 85 100 101 102 101 100 99 100 101 99 100 100 100 102 98 101 100 77 60 67 75 82 96 101 101 104 101 100 98 70 33 22 26
96 91 95 97 91 89 86 76 68 64 59 57 58 55 52 49 46 45 43 42 43 44 42 41 40 37 36 34 41 63 84 97 102 101 101 99 99 101 99 100 100 99 101 101 99 102 93 74 70 79 86 88 92 99 103 97 94 102 95 62 32 23
104 95 92 96 94 89 82 72 65 63 60 57 57 57 55 51 48 46 44 43 42 43 43 41 41 39 37 35 34 43 58 75 91 99 102 102 99 99 100 100 100 99 99 100 99 100 102 90 71 73 86 89 89 97 104 101 96 99 103 95 71 43
104 102 97 98 99 94 87 78 70 65 61 58 57 57 57 54 52 48 45 45 44 44 44 42 42 41 39 37 34 34 39 49 64 79 91 101 102 101 102 101 100 101 100 101 101 98 101 101 88 76 81 89 90 97 104 103 100 99 98 101 99 83
103 105 102 100 100 101 99 94 86 77 68 60 57 58 58 57 55 53 48 46 46 46 45 44 42 42 42 41 38 35 34 36 42 49 59 73 85 93 100 102 103 102 101 100 101 102 100 100 101 96 91 95 99 100 104 103 98 95 97 100 99 101
103 105 106 105 102 101 103 103 99 93 84 71 62 58 57 58 57 56 53 49 48 47 47 46 44 43 42 42 42 41 37 35 35 36 38 43 50 61 71 81 92 100 105 104 100 101 102 99 100 102 99 100 103 103 105 106 96 82 84 97 98 99
103 102 103 104 104 103 103 105 104 101 97 88 77 65 58 58 57 57 57 54 50 48 48 48 47 45 43 42 42 43 42 40 38 36 36 37 37 39 42 47 59 73 84 92 96 101 104 102 100 100 100 101 102 103 104 105 99 87 80 88 97 99
99 101 101 101 102 101 100 103 104 102 101 97 92 82 70 63 60 58 57 56 54 51 49 48 49 49 46 44 42 42 42 42 42 40 38 38 38 38 37 36 39 44 47 52 65 79 88 94 100 102 100 100 101 101 101 100 100 100 95 90 95 99
94 96 99 101 102 100 97 98 101 102 101 99 97 93 86 77 71 67 61 56 56 56 54 50 49 50 50 49 47 44 42 41 41 41 41 40 39 38 38 38 37 37 38 36 36 43 49 59 78 96 101 100 100 100 99 100 100 102 102 98 96 97
100 97 97 98 100 100 97 94 94 96 97 98 98 96 93 88 84 81 74 64 58 56 56 55 53 51 50 51 51 49 47 44 42 41 40 40 40 40 38 38 38 36 37 37 35 33 32 33 44 66 90 100 102 101 100 100 100 101 103 101 97 96
107 105 102 100 100 98 96 93 91 91 92 95 99 99 98 94 91 89 87 80 71 62 57 55 55 55 52 50 50 50 50 48 47 44 42 41 39 39 39 37 38 37 36 36 36 35 34 33 32 39 59 81 96 102 102 100 100 100 102 104 100 97
108 107 107 108 107 104 102 101 99 95 92 93 98 101 102 101 97 96 96 94 89 80 70 60 55 54 54 54 52 51 50 49 49 48 45 44 41 39 39 38 37 36 36 35 36 36 35 35 35 35 38 51 72 90 97 101 102 100 99 103 103 100
107 106 107 110 111 109 108 109 107 103 98 95 96 100 104 105 103 102 102 101 99 96 91 81 70 61 55 53 53 52 51 49 48 48 47 45 44 42 39 38 37 36 36 35 34 35 35 34 34 36 35 37 49 64 78 91 100 102 100 100 102 103
105 106 107 107 109 108 107 106 105 104 103 103 101 100 101 103 104 103 103 104 103 102 101 98 93 84 71 61 55 52 51 50 48 48 48 46 44 44 42 40 38 36 35 35 34 33 33 34 33 33 33 34 37 43 55 74 88 97 102 101 100 102
Wind_Speed
88 87 86 85 84 82 81 80 79 77 76 75 74 72 69 68 69 68 67 66 64 62 60 58 56 53 51 47 41 34 29 28 29 29 27 25 23 21 20 19 20 21 25 27 29 29 26 23 22 24 28 34 38 37 37 38 38 38 38 38 35 31
87 86 84 83 82 81 80 78 77 75 75 74 72 71 70 69 67 65 64 63 62 61 58 56 53 50 47 41 34 28 27 28 29 28 26 23 21 21 20 20 22 24 26 28 28 26 24 22 21 24 29 35 39 38 38 38 37 37 37 38 38 34
85 84 83 82 81 80 78 76 75 74 73 72 71 70 69 67 65 64 62 61 60 59 57 54 50 47 41 34 28 26 27 28 28 26 24 22 20 21 21 22 23 22 23 26 26 24 22 21 22 24 29 35 40 40 39 38 37 36 37 38 38 37
83 82 81 81 80 78 76 75 74 73 72 71 70 69 67 65 63 62 60 59 57 55 54 51 47 43 36 30 28 28 28 26 25 24 22 21 20 20 23 24 22 19 22 27 26 22 21 21 22 25 28 33 40 42 41 39 38 36 37 39 38 38
81 81 80 78 77 76 74 73 72 71 70 70 69 68 65 63 62 60 58 56 54 52 50 47 44 39 32 30 31 31 29 26 23 23 23 23 23 24 25 24 20 19 26 28 25 21 21 22 23 25 28 31 37 42 44 42 40 38 38 40 39 37
80 79 77 76 75 74 72 71 70 69 69 68 68 66 63 62 60 58 56 53 51 49 46 44 41 37 32 31 33 33 32 27 23 24 25 25 26 24 24 23 21 24 29 27 23 21 21 21 23 25 27 30 34 39 44 46 44 42 40 41 41 38
77 76 75 74 73 72 70 69 68 67 66 66 65 63 61 60 58 55 53 51 49 46 44 42 40 37 33 34 35 35 34 28 25 27 26 26 26 25 27 28 27 29 30 26 22 21 21 21 23 25 26 28 32 35 40 45 46 45 44 42 42 41
75 74 73 72 71 69 68 67 65 65 64 63 61 60 59 58 55 53 51 48 46 44 42 40 39 38 36 38 39 38 36 30 27 30 29 29 30 30 31 31 29 29 28 24 21 20 20 21 23 25 27 27 30 34 36 41 45 47 48 46 43 43
73 72 71 70 68 66 65 64 63 62 61 59 58 57 55 54 53 50 48 45 43 42 41 39 39 38 38 42 43 43 39 31 29 31 30 29 30 30 30 29 28 28 26 24 21 20 20 21 23 25 27 28 30 33 35 39 44 47 48 49 45 43
70 69 68 66 65 63 62 60 59 58 57 56 54 53 51 51 49 47 44 42 41 40 39 39 38 38 39 42 45 46 41 32 31 33 30 28 28 29 29 29 27 26 26 25 22 20 20 21 22 25 26 28 29 32 34 38 44 47 47 49 48 44
66 66 64 62 61 60 58 56 55 54 53 52 50 49 47 47 46 44 42 40 39 38 38 37 37 37 38 40 43 44 39 34 34 34 31 29 28 28 30 29 27 25 26 26 23 21 21 21 22 25 27 28 29 31 33 36 43 47 47 48 48 46
62 62 61 59 58 56 55 53 51 50 48 47 47 45 44 43 42 41 40 39 37 36 36 36 36 36 37 38 38 37 36 36 36 34 31 29 28 29 30 30 27 26 27 25 24 22 22 21 22 24 26 28 29 30 32 34 40 45 47 47 47 46
58 57 56 55 54 53 51 49 47 46 44 44 43 42 41 40 39 39 39 38 36 34 34 35 35 35 36 36 35 35 35 37 37 35 32 30 29 30 31 30 28 28 27 25 24 24 23 22 21 22 25 28 30 30 31 33 37 42 45 46 46 46
54 52 51 50 50 49 48 45 43 42 41 40 40 39 38 38 38 38 38 37 35 33 32 33 33 33 35 36 35 37 38 38 38 36 34 32 32 32 31 30 29 28 27 25 25 26 26 24 21 21 24 27 30 30 31 32 35 40 43 45 45 46
49 48 47 46 46 46 45 43 40 38 37 37 37 37 37 37 37 38 37 36 34 31 30 32 32 31 35 35 34 37 39 38 37 36 36 35 34 32 30 31 31 29 28 27 26 27 27 26 24 22 23 26 29 30 31 32 34 38 43 44 45 47
46 44 43 42 42 42 41 40 38 36 35 35 35 36 36 36 36 36 36 35 33 31 29 31 31 32 35 34 34 37 38 37 36 36 38 37 34 33 33 34 33 30 29 28 28 29 28 27 25 23 22 24 28 30 31 32 33 36 40 44 46 48
42 41 40 39 39 38 38 37 36 35 34 34 34 35 35 35 35 35 35 34 33 31 29 30 31 32 35 35 34 35 37 37 35 36 38 37 35 35 37 35 33 31 31 30 30 30 29 27 25 23 23 23 26 29 31 33 33 34 37 42 45 47
38 37 37 36 36 36 37 36 36 35 35 34 33 34 35 34 34 34 34 34 34 32 29 29 30 32 36 38 36 35 37 36 32 33 37 36 34 36 37 34 32 32 33 32 31 31 30 27 24 23 23 24 25 27 30 33 34 34 35 40 44 46
34 34 34 34 35 35 36 36 36 36 35 34 34 34 35 34 34 34 34 34 34 32 30 29 31 33 37 41 39 37 39 38 33 33 36 36 35 36 36 35 34 34 34 34 32 32 32 30 26 24 24 25 25 26 28 31 35 36 36 38 42 45
32 32 33 33 34 35 36 36 36 36 35 35 34 34 35 34 34 34 34 35 34 33 31 30 31 33 38 43 42 39 41 41 38 37 39 39 38 37 37 38 38 36 35 34 33 34 35 34 32 29 27 27 26 27 28 30 33 36 38 38 39 43
32 32 33 34 34 35 36 37 36 36 35 35 35 35 35 35 34 34 34 35 34 34 33 32 32 34 37 43 45 43 43 44 43 41 41 41 41 40 40 40 40 37 35 35 36 35 36 38 38 35 32 30 27 26 26 28 31 34 38 40 40 41
33 33 33 34 35 35 36 37 37 36 36 35 35 35 35 35 34 34 34 35 35 35 34 33 33 34 37 42 47 47 46 45 45 44 42 40 40 41 41 40 39 38 38 39 39 38 37 39 40 38 35 33 30 27 25 27 30 33 36 39 41 41
34 33 34 35 35 36 36 37 37 37 36 36 36 36 35 35 35 34 35 35 35 35 35 35 34 35 38 42 46 49 50 48 46 46 44 40 38 40 41 41 39 39 41 44 44 41 38 37 39 39 37 36 34 30 28 28 29 31 34 37 40 42
35 34 34 35 36 36 37 37 37 37 37 37 37 37 36 36 35 35 35 35 36 36 36 36 36 36 38 42 45 49 51 52 50 49 48 45 42 42 43 42 41 41 42 45 46 44 41 38 39 39 39 41 39 34 32 32 32 31 32 35 39 41
37 35 35 36 37 36 37 37 37 37 37 38 38 38 37 37 36 36 36 36 36 37 37 37 37 38 38 41 45 48 50 53 53 53 53 51 48 47 46 46 44 43 44 45 46 46 44 42 42 41 42 44 43 40 38 35 34 33 33 35 39 40
39 37 36 37 37 37 37 38 38 38 38 38 39 39 38 38 37 37 37 37 37 37 38 38 39 39 40 41 44 48 50 51 53 55 56 56 55 53 52 51 49 46 46 47 48 48 47 46 46 46 47 46 43 43 42 39 37 36 35 35 38 40
40 39 38 38 39 38 38 38 38 38 38 38 39 40 40 39 38 38 38 38 38 38 39 40 40 41 41 42 43 47 49 51 51 53 56 58 59 58 57 57 57 54 51 50 51 51 51 50 49 51 53 52 48 47 45 41 40 39 37 36 37 38
41 41 40 40 40 40 40 40 40 39 39 39 40 41 41 40 40 39 39 39 39 40 40 41 42 42 43 44 45 46 48 50 51 52 53 55 58 60 60 59 60 60 57 54 53 52 52 52 52 53 56 57 56 54 49 44 43 43 40 39 39 38
41 42 42 43 42 42 42 41 41 41 40 40 41 41 42 41 41 41 41 40 41 41 42 42 43 44 45 45 46 47 48 50 51 52 53 53 55 57 59 60 60 60 59 58 56 54 52 50 51 53 54 56 58 57 53 48 47 46 44 42 41 39
43 43 43 44 44 43 43 43 43 43 42 42 42 42 43 43 43 43 43 42 42 43 43 44 44 45 46 47 48 49 50 50 52 53 54 54 55 56 57 58 59 59 59 59 59 58 55 52 52 52 53 55 56 57 54 51 51 50 47 45 44 42
46 45 44 45 45 45 44 45 45 45 44 44 44 44 44 44 44 44 44 44 44 44 45 46 46 47 48 49 49 50 51 52 53 54 55 55 56 57 57 58 59 59 59 59 60 61 60 57 54 53 53 54 55 56 55 52 53 53 50 49 47 46
48 47 46 46 46 46 45 45 46 47 46 46 46 46 46 46 46 46 46 46 46 46 47 47 48 49 50 50 51 52 52 53 54 55 55 56 57 58 58 59 59 60 59 59 59 61 63 62 59 57 55 55 55 57 57 55 55 54 53 53 51 49
50 49 49 48 48 48 47 46 47 47 47 47 48 49 49 48 48 48 47 47 47 48 48 49 50 51 52 52 53 54 54 55 55 55 56 57 58 59 60 60 61 61 61 61 61 61 63 64 63 61 59 57 57 58 59 59 57 56 55 55 54 53
53 52 52 51 50 50 49 48 48 48 48 48 49 50 50 50 50 50 50 49 49 50 50 51 52 53 53 54 55 56 56 57 57 57 58 58 59 60 61 61 62 63 63 63 64 63 64 64 64 63 62 61 60 59 60 61 60 58 58 57 56 56
55 55 54 53 53 52 51 51 51 51 51 50 50 51 51 52 51 51 52 52 52 52 52 53 54 55 55 56 57 58 58 59 59 59 60 60 60 61 61 62 62 63 64 65 65 66 66 66 65 64 63 63 63 62 62 62 62 61 60 60 59 59
58 58 57 56 56 55 55 54 54 53 53 53 53 53 53 53 53 53 53 54 54 55 55 55 56 56 57 58 59 60 60 61 61 61 62 62 63 63 63 63 64 64 64 65 66 67 67 67 67 66 65 64 65 65 65 64 63 64 63 62 62 62
61 61 61 60 59 59 59 58 57 56 55 55 55 55 55 55 55 55 55 56 57 57 58 58 59 59 59 60 61 61 62 63 63 63 64 64 65 65 65 66 66 66 66 66 66 67 68 68 68 67 67 66 65 67 67 66 65 65 66 65 65 65
Wind_Direction
283 284 284 284 284 285 285 285 286 286 286 286 285 285 284 283 283 284 285 285 285 285 284 284 283 283 283 282 281 277 269 261 256 254 251 248 247 250 252 249 251 260 264 266 265 258 253 249 245 237 226 219 216 217 218 216 215 215 215 211 209 216
282 282 282 283 283 284 284 284 284 284 284 284 284 283 283 283 283 283 284 284 284 284 283 282 282 281 281 280 277 267 257 253 251 250 247 243 246 251 251 249 254 258 260 261 259 255 250 244 240 234 224 219 217 217 217 215 215 216 216 214 213 216
280 281 281 282 282 283 283 283 283 283 283 282 282 282 282 282 282 282 282 282 282 283 283 282 281 281 279 274 263 252 247 247 248 247 244 244 247 248 248 252 256 254 259 263 257 251 246 240 236 232 225 219 217 216 216 215 215 215 215 214 214 218
279 280 280 281 281 282 281 281 281 282 281 281 281 281 281 281 281 280 280 280 280 281 281 281 279 278 274 262 248 240 239 240 244 245 243 243 244 249 253 253 250 252 265 266 255 245 240 238 236 234 228 221 218 217 215 216 217 216 216 214 214 219
278 278 279 280 280 280 280 280 280 281 280 280 280 280 280 280 279 279 279 279 279 278 278 277 275 272 264 251 242 237 234 234 241 242 241 247 253 256 252 244 246 263 269 260 247 240 236 235 236 236 233 227 222 219 217 217 219 220 219 216 214 219
277 278 278 278 278 278 279 279 279 279 279 279 279 279 279 279 279 278 278 278 277 276 274 271 269 264 253 243 240 238 233 234 242 241 242 250 254 250 243 243 255 268 265 250 238 237 234 233 236 238 236 231 227 223 220 220 221 223 223 220 217 218
276 277 277 277 277 277 277 277 277 277 277 277 278 278 279 278 278 278 277 276 275 273 270 266 262 255 244 237 237 236 236 242 247 239 238 246 249 247 248 255 262 263 254 239 232 236 234 233 235 239 238 234 231 227 223 222 223 224 225 224 221 221
274 274 275 275 275 276 276 276 276 276 276 276 277 277 278 278 278 277 276 274 273 270 266 262 257 250 239 232 234 236 239 249 248 241 241 247 250 250 252 254 255 253 241 229 232 236 235 235 235 239 240 237 234 231 226 221 221 223 225 226 225 224
273 273 273 274 274 274 274 274 275 275 275 276 276 277 277 277 277 276 274 272 270 266 262 258 253 248 238 230 232 236 242 250 246 244 244 242 242 244 245 244 243 243 235 229 235 239 239 238 237 239 241 240 237 233 229 222 220 222 225 227 228 227
273 273 273 273 273 273 273 273 274 274 275 275 276 276 276 275 275 274 272 269 266 262 259 255 250 246 239 231 231 236 244 249 240 239 238 230 230 234 236 236 238 242 238 232 235 241 242 240 239 239 240 241 239 236 231 224 221 221 224 226 228 229
272 272 273 272 273 273 273 273 273 274 274 275 275 274 273 272 272 272 270 266 262 259 255 253 249 244 240 234 232 235 241 240 232 232 231 224 221 225 230 234 239 242 239 235 235 242 244 242 242 241 241 241 240 239 234 227 222 222 223 226 228 230
270 271 272 272 272 272 273 273 273 274 273 273 272 271 270 270 270 269 267 263 259 255 252 249 247 243 240 237 232 229 230 230 228 228 226 221 219 222 229 234 238 238 235 234 235 241 243 242 243 244 244 243 242 241 237 229 223 223 224 226 229 231
268 270 271 271 272 271 272 272 273 272 271 270 269 269 269 268 267 266 263 260 257 252 249 246 244 242 238 237 230 221 221 225 225 225 222 220 219 224 230 235 237 233 231 232 234 238 240 238 239 242 244 244 243 242 240 234 225 223 225 227 229 232
268 268 269 270 271 271 271 270 270 269 268 267 268 267 266 265 264 262 261 259 256 250 246 242 240 239 237 235 228 219 220 223 224 225 224 219 218 225 233 237 235 229 229 231 233 238 237 234 233 236 242 243 243 241 241 239 230 224 225 227 228 231
266 267 267 268 269 270 270 269 267 265 265 265 266 265 263 262 261 260 260 258 255 249 243 239 236 234 235 232 224 219 220 221 224 229 229 223 218 221 231 236 233 228 229 230 234 239 237 234 230 231 237 241 243 241 240 241 236 229 226 227 228 229
265 264 264 265 265 266 267 267 265 263 262 262 263 262 261 260 259 258 258 257 254 248 240 237 232 230 230 226 218 218 220 220 222 229 232 227 221 221 227 232 232 228 228 230 234 240 238 234 231 229 233 238 242 242 240 240 239 235 230 228 230 230
263 262 261 261 261 262 263 264 264 263 261 260 259 259 259 259 258 257 256 255 253 247 239 234 230 228 226 218 212 214 217 217 220 225 228 227 225 228 228 230 231 229 227 228 235 241 239 235 233 232 232 235 239 241 242 241 240 239 234 230 231 233
261 259 258 258 257 258 259 260 261 261 260 258 257 258 258 258 257 256 254 252 250 246 239 232 229 227 223 214 209 212 212 212 216 222 225 226 227 229 229 229 230 229 228 231 239 244 241 237 234 234 234 234 235 238 241 243 242 241 238 233 232 234
258 256 255 255 255 255 256 257 258 258 258 258 256 256 257 257 256 255 253 251 249 246 240 233 229 226 222 215 210 211 211 208 209 215 221 225 227 227 230 234 236 235 233 235 241 242 240 240 237 236 237 235 235 237 239 242 244 243 242 238 234 233
254 253 252 252 254 254 255 255 255 256 256 256 255 255 255 255 254 253 252 250 248 245 240 233 230 227 223 217 212 211 212 210 207 210 216 221 225 226 230 237 241 241 238 238 241 238 236 240 240 238 239 238 237 239 239 241 244 244 244 243 240 235
251 250 251 251 252 253 254 254 254 254 254 254 254 254 253 253 253 251 250 249 247 246 241 234 229 228 226 221 214 211 212 212 210 210 214 217 221 224 228 234 238 240 241 243 244 238 233 237 240 239 240 238 235 237 241 244 244 244 245 245 245 242
250 249 249 251 252 252 252 253 253 253 253 253 253 253 252 251 251 250 248 247 246 245 243 237 230 227 227 225 220 213 211 212 212 212 214 216 219 222 224 230 233 235 237 241 244 241 234 233 235 237 239 238 235 234 240 247 248 246 245 246 247 246
249 249 249 250 251 251 251 251 252 252 252 252 252 252 251 250 249 248 247 246 244 243 243 240 234 228 225 226 226 220 214 211 211 212 214 216 217 217 220 224 228 230 231 235 239 239 237 234 234 235 236 237 237 236 238 244 249 249 246 246 247 248
251 249 249 250 250 249 249 250 250 250 250 250 251 251 251 250 249 247 246 245 243 242 241 240 237 232 226 225 227 227 222 216 212 210 213 216 216 216 218 221 224 226 227 231 235 237 236 235 238 240 239 238 239 239 240 241 244 248 248 246 246 248
253 251 250 250 250 249 249 249 248 248 248 248 249 250 250 249 247 246 245 244 243 242 240 239 238 235 231 227 226 228 229 225 220 216 215 217 218 217 218 220 222 225 226 229 233 235 234 232 236 242 243 242 241 241 244 243 241 244 246 247 246 247
253 253 252 251 251 250 249 248 247 246 246 246 247 248 248 248 247 245 245 244 243 241 240 239 238 236 234 231 228 228 230 231 229 226 223 222 222 221 220 221 221 223 226 229 232 234 235 232 233 238 243 245 243 243 247 247 244 242 243 246 248 247
253 253 252 252 252 251 250 249 248 246 246 245 246 246 247 247 246 244 243 243 243 242 240 239 238 237 236 235 233 231 232 233 233 233 231 230 229 229 227 226 225 225 227 230 232 234 237 236 235 238 243 245 245 245 249 249 245 243 241 244 249 250
251 251 251 250 250 250 250 249 248 247 246 245 245 245 245 246 246 245 243 242 242 242 241 240 238 237 236 235 235 234 234 235 236 236 236 235 235 235 235 234 233 233 234 234 234 234 236 238 238 239 241 244 245 245 247 248 244 241 239 240 246 251
249 250 249 249 248 248 249 249 248 247 246 245 245 244 244 244 245 244 243 241 240 241 242 241 240 238 237 235 235 235 235 236 237 238 239 239 238 238 239 239 239 240 241 239 238 236 234 234 236 238 239 241 243 244 245 248 246 241 238 237 240 246
250 249 250 249 248 247 247 248 249 248 247 246 245 244 244 244 244 244 244 243 241 240 240 241 241 241 239 237 236 235 236 236 237 238 239 240 240 240 241 242 242 242 243 242 241 241 239 234 233 236 238 239 242 243 245 247 247 245 241 237 236 238
252 251 250 251 250 248 247 247 248 248 248 247 246 245 244 243 243 244 244 244 243 241 240 240 240 241 241 241 239 238 237 236 237 238 239 240 242 242 242 243 243 244 244 243 242 243 244 241 236 235 237 238 240 243 245 246 245 246 245 242 238 235
253 252 251 250 251 250 249 248 247 248 248 248 247 246 245 244 244 244 244 243 243 242 241 240 239 240 240 241 241 241 240 239 238 238 238 239 241 242 243 243 244 245 246 246 244 243 245 245 242 238 237 237 238 240 243 244 243 243 245 244 241 239
254 253 252 251 251 251 250 249 249 249 249 249 249 248 247 246 245 245 244 244 243 243 242 241 241 240 240 240 241 241 242 241 241 240 240 239 240 241 242 243 244 245 246 247 247 246 245 247 247 243 240 238 238 238 239 242 243 242 242 243 243 242
254 254 253 253 252 252 252 251 251 250 250 250 249 249 249 248 247 247 246 245 245 244 243 242 242 241 241 241 241 241 241 242 242 242 242 241 241 241 242 243 243 244 244 245 247 247 247 247 248 247 244 241 240 239 238 239 241 241 241 242 242 243
254 254 254 253 253 253 253 253 252 251 251 250 250 249 249 249 249 248 247 247 246 246 245 244 243 242 242 242 242 242 241 241 242 242 243 243 243 243 243 243 243 243 244 244 245 246 247 247 248 248 246 243 242 241 240 238 238 239 240 241 242 242
254 254 253 253 253 253 253 252 252 252 252 251 250 249 249 249 248 248 248 248 247 247 246 246 245 244 243 243 243 243 243 242 242 242 243 243 243 244 244 244 244 244 244 244 244 245 246 247 247 248 248 246 243 243 242 240 238 238 238 239 240 242
254 254 254 253 253 253 253 253 253 253 253 252 252 250 249 249 248 248 248 248 248 248 247 247 247 246 246 245 244 244 244 244 244 244 244 244 244 244 245 245 245 245 245 245 245 245 246 247 247 247 248 247 245 244 243 242 240 238 238 238 239 240